Wind_Speed
29 29 29 29 30 29 28 26 26 26 27 26 26 27 28 27 26 27 26 26 25 24 24 23 22 21 20 19 18 17 17 16 15 15 14 14 13 13 12 12 12 11 10
31 31 31 30 30 30 29 28 27 27 27 28 28 28 29 29 29 29 28 27 26 25 25 25 25 24 23 21 20 20 19 18 18 17 16 16 15 15 14 14 13 13 12
33 33 33 32 31 30 30 30 29 29 30 29 29 30 30 29 29 29 29 29 28 27 26 26 26 25 24 22 21 20 20 20 20 19 19 18 18 17 17 16 16 15 14
35 34 33 31 31 31 31 31 31 30 30 30 30 30 30 31 30 30 30 30 30 28 27 27 27 26 26 25 23 22 22 21 21 21 21 20 20 19 18 18 17 17 17
35 34 33 32 32 32 32 32 32 31 31 30 30 30 30 30 31 31 30 31 30 29 28 27 26 26 26 25 24 23 23 22 22 22 21 21 21 21 20 20 19 19 19
37 36 35 35 35 34 33 33 32 32 32 31 31 31 31 30 30 31 31 31 31 30 28 27 26 26 26 25 24 24 23 23 22 22 22 21 21 21 21 21 20 20 20
38 38 37 37 37 36 35 34 33 33 32 33 33 32 30 29 29 30 31 31 31 29 28 28 27 27 26 25 25 25 24 24 23 23 22 22 21 21 20 21 21 21 21
39 39 39 38 38 37 36 36 34 34 34 33 33 32 32 29 28 29 31 32 31 30 30 29 28 28 27 26 25 24 24 24 24 23 23 22 21 21 20 20 21 21 21
40 39 39 39 38 37 37 37 36 35 33 33 33 32 31 30 28 28 30 31 32 32 30 30 30 29 28 26 25 24 24 24 24 23 23 22 21 20 19 19 20 20 21
40 40 40 39 38 37 37 37 37 36 35 34 34 34 33 32 31 29 30 31 32 32 31 31 31 30 29 28 27 26 25 25 24 23 22 21 20 19 18 18 18 19 19
40 40 40 39 38 38 37 37 37 36 35 35 35 34 34 33 32 31 31 32 32 32 32 32 32 32 31 29 29 28 27 26 25 24 22 21 20 19 18 17 17 17 17
39 39 39 39 38 38 38 38 38 37 36 36 36 36 35 36 34 33 33 34 34 34 33 33 34 34 33 32 32 30 29 28 26 25 24 22 21 19 18 17 15 15 15
39 39 39 38 38 38 38 38 38 38 38 37 37 37 37 37 37 36 36 36 36 36 35 34 34 36 35 34 34 33 31 30 28 27 25 24 22 20 19 17 16 15 14
39 39 39 39 39 38 38 38 38 38 39 39 39 39 39 39 39 38 38 37 37 39 38 38 37 38 37 36 36 35 34 32 31 29 28 26 24 22 20 18 17 15 14
40 40 41 41 41 41 40 40 40 40 40 40 41 41 41 41 41 41 40 41 39 40 40 40 40 40 39 39 38 38 37 35 33 32 30 28 26 24 22 20 18 16 15
41 42 43 43 43 43 43 42 42 42 42 42 42 43 44 44 44 43 44 44 44 42 41 41 42 42 41 41 41 40 39 38 36 35 33 31 29 26 24 22 20 18 16
42 43 43 44 44 45 45 45 44 44 44 44 44 44 45 46 46 46 45 47 47 46 44 43 44 44 43 43 43 43 43 41 39 37 36 34 32 29 27 24 22 20 18
43 44 44 45 45 45 46 47 47 47 46 46 47 47 47 47 48 49 49 48 49 49 48 48 46 46 44 45 45 45 45 44 42 41 39 37 35 32 29 27 25 22 20
44 44 44 44 45 46 46 47 47 48 48 48 49 50 50 50 50 50 51 51 52 52 51 50 49 48 48 47 46 46 46 46 45 43 42 40 38 35 32 30 28 25 23
43 43 44 44 44 45 46 47 47 48 50 50 50 51 52 53 53 53 53 53 54 54 53 53 51 51 50 49 48 47 47 47 46 46 44 42 40 38 35 33 30 27 25
42 42 42 42 43 44 44 45 47 48 49 50 51 51 52 54 55 55 55 55 56 56 56 55 54 54 53 51 48 47 47 47 46 46 46 45 43 41 38 35 32 29 26
41 42 42 42 42 42 43 44 45 47 48 49 49 50 52 54 55 56 57 57 58 58 58 57 56 56 56 54 50 48 48 48 47 46 47 46 45 43 41 38 35 31 29
41 41 40 40 40 41 41 42 43 44 44 45 47 49 50 52 53 55 57 58 59 59 59 59 59 58 57 56 53 50 49 49 48 47 47 47 46 44 43 40 37 34 31
39 39 38 38 37 38 39 39 39 39 39 40 43 45 47 50 51 53 55 57 58 59 60 59 60 60 59 58 56 54 52 50 49 49 48 46 45 45 44 42 39 36 33
38 38 37 36 35 35 35 34 34 33 34 36 38 41 43 46 49 50 52 54 56 57 58 59 59 61 61 60 58 57 55 53 51 48 47 46 45 44 44 43 40 37 34
37 36 35 34 33 31 30 30 29 29 30 31 33 35 38 41 44 47 49 51 52 55 56 57 58 58 60 61 60 58 56 54 51 49 47 47 46 45 43 43 42 39 36
Wind_Direction
293 293 289 284 281 278 278 277 275 276 275 272 264 261 261 261 257 251 250 247 244 243 242 241 239 236 234 235 235 234 233 230 227 226 225 224 224 224 225 225 225 226 227
290 291 289 287 283 276 274 274 274 276 274 272 267 262 259 258 256 252 249 244 241 241 241 240 238 236 234 233 232 233 233 231 229 228 228 228 228 228 229 229 230 231 232
290 292 292 289 285 279 274 273 273 274 273 271 268 265 260 256 255 251 248 243 240 240 240 238 238 235 231 231 231 232 233 232 231 231 231 232 233 232 232 233 234 234 234
290 290 290 287 285 280 276 274 272 272 273 270 267 265 261 256 254 253 245 240 240 241 239 237 236 233 231 231 230 232 231 232 233 233 234 235 235 235 234 234 235 236 236
291 291 289 287 287 283 280 276 272 271 270 268 265 263 262 257 252 250 243 238 238 238 238 236 235 232 231 229 228 230 229 231 233 233 234 236 235 235 236 236 237 238 238
291 289 288 286 286 283 281 276 271 270 268 266 264 264 263 257 252 249 241 237 237 236 235 234 232 231 229 227 227 228 229 231 232 233 233 234 234 234 236 237 238 238 239
289 288 287 285 284 282 279 275 272 271 270 266 263 262 260 256 253 246 240 236 236 235 232 230 229 229 227 227 227 227 228 229 230 230 231 232 232 233 236 236 237 238 239
287 287 285 283 282 280 277 275 272 269 268 265 263 259 255 255 252 245 238 233 233 232 230 228 227 226 225 226 225 225 225 225 226 227 229 230 230 232 234 235 236 237 239
287 285 283 282 280 279 276 273 271 269 266 263 260 257 253 250 250 244 238 232 231 230 229 227 225 224 224 223 224 223 222 222 222 224 225 227 228 229 231 234 235 236 238
287 285 282 280 279 276 274 272 270 268 265 262 259 255 252 249 247 241 236 232 230 229 228 226 224 223 221 221 222 221 220 219 218 220 221 222 224 225 228 230 231 234 237
287 284 282 279 277 274 272 270 269 266 264 260 257 254 251 247 244 240 236 233 230 228 227 226 224 221 220 220 220 219 217 216 215 216 217 219 220 220 222 223 226 230 234
287 285 282 280 277 274 271 268 266 264 261 259 257 253 249 245 242 238 236 233 230 227 226 225 223 221 220 219 218 217 215 214 214 215 216 218 218 218 219 221 223 226 231
289 287 284 281 279 276 273 268 264 261 259 257 255 252 248 244 240 237 234 232 230 227 225 224 223 220 219 218 218 217 215 214 214 215 216 217 218 218 219 220 223 225 230
289 287 285 283 280 277 274 270 267 262 258 256 254 251 247 242 239 237 235 233 230 227 225 224 223 222 218 219 219 218 217 216 216 217 217 217 219 220 220 221 223 227 232
291 288 286 283 281 279 275 271 268 265 261 256 253 250 248 244 240 237 234 232 229 226 224 223 222 220 219 219 219 218 218 218 219 219 219 219 219 220 222 223 225 229 233
292 289 286 283 281 279 276 272 268 265 262 258 254 251 248 245 241 237 234 230 229 226 223 220 219 219 218 219 219 219 219 219 220 220 220 220 220 221 222 224 227 230 233
293 290 287 284 282 279 276 273 269 265 262 258 255 252 248 245 241 238 234 230 229 226 223 220 218 218 219 219 220 220 221 221 221 221 222 222 222 222 224 225 228 231 235
295 291 288 285 282 280 277 274 271 267 262 258 255 251 248 245 242 238 235 231 228 227 224 222 219 218 220 220 220 221 221 221 222 222 222 223 222 223 224 226 229 233 237
296 293 289 286 283 280 277 274 271 267 263 259 255 251 247 245 242 238 235 232 230 228 226 223 220 218 220 220 221 221 222 222 222 222 222 223 223 224 225 227 230 233 237
299 295 292 288 285 282 278 274 271 268 264 260 256 251 247 244 241 238 235 232 230 228 226 224 222 220 220 220 222 222 223 223 224 222 222 223 223 224 225 227 229 232 237
302 298 295 291 288 284 280 276 272 269 265 260 256 251 246 242 239 237 235 232 230 228 226 224 222 220 219 220 221 221 222 223 223 223 223 223 224 224 226 227 229 231 236
305 301 296 293 289 286 282 278 274 270 265 259 254 250 245 241 238 235 233 232 230 228 226 224 223 221 220 220 220 221 221 222 222 223 224 224 224 224 226 227 229 231 236
308 305 301 297 293 289 285 281 277 272 266 259 253 249 244 240 237 234 232 230 229 228 226 224 223 222 221 221 221 220 220 220 221 222 222 223 224 225 225 227 229 231 235
312 309 306 302 298 293 289 285 279 273 266 259 253 247 241 238 234 232 230 229 228 227 226 225 224 223 221 220 221 220 219 220 220 221 222 222 222 223 225 227 229 231 235
316 314 310 306 303 298 293 288 282 273 266 260 252 245 239 235 232 229 229 227 226 225 225 224 224 224 223 222 221 221 220 221 221 221 221 221 222 223 224 226 229 231 234
321 318 315 312 308 303 297 291 285 275 267 260 250 242 236 231 227 227 226 225 224 223 223 223 223 224 224 223 222 221 221 221 222 222 222 220 220 222 224 226 227 230 233
Height
5870 5868 5866 5865 5863 5862 5862 5861 5860 5859 5859 5858 5858 5859 5860 5860 5862 5864 5866 5868 5870 5872 5874 5876 5877 5879 5881 5883 5885 5887 5889 5890 5892 5894 5896 5897 5899 5901 5902 5904 5905 5906 5908
5862 5860 5858 5857 5855 5855 5854 5853 5853 5852 5851 5851 5851 5851 5852 5853 5854 5856 5859 5861 5864 5866 5867 5870 5872 5874 5876 5878 5880 5883 5885 5887 5888 5890 5892 5894 5896 5898 5899 5901 5903 5904 5906
5854 5852 5850 5849 5847 5846 5846 5845 5845 5844 5844 5843 5844 5844 5845 5846 5847 5849 5851 5854 5857 5859 5861 5863 5866 5869 5871 5873 5876 5878 5880 5882 5884 5886 5888 5891 5893 5894 5896 5898 5899 5901 5903
5846 5844 5843 5841 5839 5837 5836 5836 5836 5836 5836 5836 5836 5837 5838 5839 5840 5841 5844 5847 5850 5853 5855 5858 5860 5862 5865 5868 5871 5873 5876 5878 5880 5882 5884 5886 5889 5891 5892 5894 5896 5898 5900
5838 5836 5834 5833 5831 5830 5828 5827 5827 5828 5828 5828 5828 5829 5830 5831 5832 5834 5837 5840 5843 5846 5849 5851 5854 5856 5859 5862 5865 5868 5871 5873 5875 5877 5880 5882 5884 5886 5888 5890 5892 5894 5896
5829 5828 5826 5824 5822 5821 5820 5819 5819 5819 5819 5819 5820 5821 5822 5823 5824 5827 5830 5833 5836 5839 5842 5845 5848 5851 5854 5857 5860 5863 5865 5868 5870 5873 5875 5877 5880 5882 5884 5886 5888 5890 5892
5820 5818 5817 5815 5813 5812 5811 5810 5810 5810 5810 5810 5811 5812 5813 5814 5816 5818 5821 5825 5829 5832 5835 5839 5842 5845 5848 5851 5854 5857 5860 5863 5866 5868 5870 5873 5875 5877 5879 5881 5883 5885 5887
5811 5809 5807 5805 5804 5802 5801 5801 5801 5801 5801 5801 5802 5803 5805 5807 5809 5810 5813 5817 5821 5825 5829 5832 5836 5839 5843 5846 5849 5852 5855 5858 5861 5864 5866 5868 5871 5873 5875 5877 5879 5881 5883
5801 5799 5797 5795 5794 5793 5791 5791 5791 5791 5791 5792 5793 5795 5796 5799 5801 5804 5806 5810 5813 5818 5821 5825 5829 5833 5836 5840 5843 5847 5850 5853 5856 5859 5861 5864 5866 5869 5871 5873 5875 5877 5878
5789 5787 5785 5784 5783 5782 5781 5781 5780 5781 5782 5783 5784 5786 5788 5790 5793 5796 5799 5802 5806 5810 5814 5818 5822 5826 5830 5834 5837 5841 5845 5848 5852 5854 5857 5860 5862 5864 5866 5868 5870 5872 5874
5778 5775 5774 5773 5772 5771 5771 5770 5770 5771 5772 5773 5775 5776 5778 5781 5784 5787 5791 5795 5799 5802 5806 5810 5814 5819 5823 5827 5831 5835 5839 5843 5847 5850 5853 5856 5858 5860 5862 5864 5866 5868 5870
5766 5764 5762 5761 5760 5760 5759 5759 5759 5760 5761 5763 5764 5766 5769 5771 5774 5778 5782 5786 5790 5794 5798 5802 5807 5812 5816 5820 5825 5829 5834 5838 5842 5845 5848 5851 5854 5857 5859 5861 5863 5865 5866
5755 5752 5750 5749 5748 5747 5747 5747 5748 5748 5749 5751 5753 5755 5758 5761 5765 5768 5772 5776 5781 5785 5790 5795 5799 5804 5809 5813 5818 5823 5827 5832 5836 5840 5844 5847 5850 5853 5855 5857 5859 5861 5863
5744 5741 5739 5737 5736 5735 5735 5735 5735 5736 5738 5739 5741 5744 5747 5750 5754 5758 5762 5767 5771 5776 5781 5787 5791 5796 5801 5806 5811 5816 5821 5826 5830 5835 5839 5842 5845 5848 5851 5854 5856 5858 5859
5732 5729 5727 5725 5723 5722 5722 5722 5722 5723 5725 5727 5729 5731 5734 5738 5742 5746 5751 5756 5761 5766 5772 5777 5783 5788 5793 5798 5803 5809 5814 5819 5824 5829 5833 5836 5840 5843 5847 5849 5852 5854 5855
5720 5717 5714 5711 5709 5708 5707 5707 5708 5709 5711 5713 5715 5718 5722 5725 5729 5734 5739 5745 5750 5755 5761 5767 5773 5778 5784 5789 5795 5801 5806 5812 5817 5822 5827 5831 5834 5838 5841 5845 5848 5850 5851
5708 5704 5700 5698 5695 5694 5692 5692 5693 5694 5696 5698 5701 5704 5708 5712 5716 5721 5726 5732 5737 5743 5750 5756 5762 5768 5774 5780 5786 5792 5797 5803 5809 5814 5820 5824 5829 5832 5836 5839 5843 5845 5847
5694 5690 5686 5683 5681 5678 5677 5676 5676 5677 5679 5682 5685 5688 5692 5696 5702 5707 5712 5718 5725 5731 5738 5744 5750 5757 5763 5770 5776 5782 5788 5794 5801 5806 5812 5817 5822 5826 5830 5834 5837 5840 5842
5681 5676 5672 5668 5665 5663 5661 5660 5659 5660 5662 5665 5668 5671 5676 5680 5686 5691 5697 5704 5710 5717 5725 5731 5738 5745 5752 5759 5765 5772 5779 5785 5791 5798 5804 5810 5815 5819 5824 5828 5831 5834 5837
5667 5662 5657 5653 5650 5647 5645 5643 5643 5643 5644 5646 5649 5653 5658 5663 5669 5675 5682 5688 5695 5703 5711 5718 5726 5733 5740 5747 5754 5761 5768 5775 5782 5789 5795 5801 5807 5812 5817 5821 5825 5828 5831
5654 5648 5643 5638 5634 5631 5628 5626 5625 5625 5625 5627 5630 5634 5639 5644 5651 5658 5665 5673 5680 5688 5696 5704 5712 5720 5728 5735 5743 5750 5757 5765 5771 5779 5786 5793 5799 5804 5809 5814 5818 5821 5825
5641 5635 5629 5624 5619 5615 5612 5609 5607 5606 5606 5608 5611 5615 5620 5626 5633 5640 5648 5656 5664 5673 5682 5690 5699 5707 5715 5723 5731 5739 5747 5755 5762 5770 5776 5783 5789 5795 5801 5806 5810 5814 5818
5629 5622 5615 5610 5605 5600 5596 5592 5589 5588 5588 5589 5592 5596 5601 5608 5615 5622 5630 5639 5648 5657 5667 5676 5685 5694 5703 5712 5719 5728 5736 5744 5752 5759 5766 5773 5780 5786 5792 5798 5803 5807 5811
5618 5610 5603 5597 5591 5586 5581 5577 5573 5571 5571 5572 5574 5578 5583 5590 5598 5605 5614 5623 5632 5642 5652 5662 5672 5681 5689 5697 5706 5716 5724 5732 5740 5747 5756 5763 5770 5777 5783 5789 5794 5799 5803
5607 5599 5592 5585 5579 5573 5567 5563 5559 5557 5557 5557 5559 5562 5568 5574 5582 5590 5599 5609 5618 5627 5636 5647 5656 5666 5675 5685 5694 5703 5711 5720 5729 5738 5746 5754 5761 5767 5774 5780 5786 5791 5796
5598 5590 5582 5574 5568 5562 5556 5552 5548 5546 5545 5544 5545 5549 5554 5560 5568 5576 5585 5594 5604 5613 5623 5633 5643 5652 5662 5672 5682 5691 5700 5710 5719 5728 5736 5744 5751 5758 5765 5772 5777 5783 5788